Stations météo

réclame
Mon MeteoGroup
Aubenas, France (7570): Température de l'air & dewpoint: 30.03.2020 00:00:00 - 05.04.2020 00:00:00 (CEST)Aubenas, France (7570): Température de l'air 5cm: 30.03.2020 00:00:00 - 05.04.2020 00:00:00 (CEST)Aubenas, France (7570): Température de l'air -20cm & Température de l'air -100cm: 30.03.2020 00:00:00 - 05.04.2020 00:00:00 (CEST)Aubenas, France (7570): Vitesse du vent & gusts: 30.03.2020 00:00:00 - 05.04.2020 00:00:00 (CEST)Aubenas, France (7570): Direction du vent: 30.03.2020 00:00:00 - 05.04.2020 00:00:00 (CEST)Aubenas, France (7570): reduced air pressure: 30.03.2020 00:00:00 - 05.04.2020 00:00:00 (CEST)Aubenas, France (7570): visibility: 30.03.2020 00:00:00 - 05.04.2020 00:00:00 (CEST)Aubenas, France (7570): Quantités de précipitations: 30.03.2020 00:00:00 - 05.04.2020 00:00:00 (CEST)
Date & Time tt [°C] td [°C] tt 5cm [°C] tt -20cm [°C] tt -100cm [°C] ff [km/h] ff [knt] fx [km/h] fx [knt] dd ppp [hPa] vv [km] rr [mm]
05.04.2020 00:00:00 7,7 1,1 2,3 12,0 11,9 0 0 5 3 N 1023,6 20 0,0
04.04.2020 23:00:00 9,5 0,4 3,0 12,0 11,9 3 1 8 4 SSE 1022,9 20 0,0
04.04.2020 22:00:00 11,5 0,0 8,9 11,9 11,9 6 4 11 6 SW 1022,4 20 0,0
04.04.2020 21:00:00 13,0 -0,3 10,3 11,9 11,9 7 4 20 11 SW 1021,6 20 0,0
04.04.2020 20:00:00 15,8 1,1 14,5 11,8 11,9 14 7 27 14 S 1020,2 20 0,0
04.04.2020 19:00:00 18,3 0,9 21,0 11,8 11,9 13 7 26 14 S 1019,4 20 0,0
04.04.2020 18:00:00 19,4 -0,1 23,1 11,8 11,9 14 8 29 16 SSW 1019,2 20 0,0
04.04.2020 17:00:00 20,1 -0,6 25,1 11,8 11,9 14 8 31 17 S 1019,0 20 0,0
04.04.2020 16:00:00 20,1 1,5 25,2 11,8 11,9 11 6 37 20 SW 1018,8 20 0,0
04.04.2020 15:00:00 19,3 -1,2 25,0 11,8 11,9 16 9 32 18 S 1019,7 20 0,0
04.04.2020 14:00:00 18,8 0,8 24,1 11,8 11,9 14 7 24 13 S 1020,0 20 0,0
04.04.2020 13:00:00 17,4 0,1 23,1 11,8 11,9 10 6 24 13 ESE 1020,6 20 0,0
04.04.2020 12:00:00 16,5 1,7 21,8 11,8 11,8 7 4 22 12 E 1021,0 20 0,0
04.04.2020 11:00:00 15,1 1,6 18,8 11,8 11,8 3 2 21 11 NE 1021,1 20 0,0
04.04.2020 10:00:00 13,3 0,6 15,9 11,9 11,9 6 3 11 6 E 1020,9 20 0,0
04.04.2020 09:00:00 9,8 1,2 7,7 11,9 11,9 0 0 4 2 N 1021,0 20 0,0
04.04.2020 08:00:00 4,9 -0,5 0,7 11,9 11,9 0 0 10 5 N 1021,3 20 0,0
04.04.2020 07:00:00 4,1 -1,1 -0,8 11,9 11,9 6 3 10 5 NNE 1020,8 20 0,0
04.04.2020 06:00:00 4,4 -1,2 1,2 11,9 11,9 3 2 14 7 SW 1020,5 20 0,0
04.04.2020 05:00:00 6,2 -1,0 3,2 11,9 11,9 7 4 20 11 NNE 1020,4 20 0,0
04.04.2020 04:00:00 7,7 -0,5 5,4 11,9 11,9 13 7 20 11 N 1019,9 20 0,0
04.04.2020 03:00:00 7,0 -0,2 4,6 11,9 11,9 13 7 17 9 N 1020,1 20 0,0
04.04.2020 02:00:00 7,5 0,0 5,6 11,8 11,8 11 6 22 12 N 1020,1 20 0,0
04.04.2020 01:00:00 7,5 0,5 4,7 11,8 11,8 14 8 20 11 N 1020,0 20 0,0
04.04.2020 00:00:00 8,0 0,7 5,1 11,8 11,8 11 6 15 8 N 1019,9 20 0,0
03.04.2020 23:00:00 8,9 1,1 6,1 11,7 11,8 10 5 16 8 N 1019,5 20 0,0
03.04.2020 22:00:00 10,2 0,8 7,4 11,7 11,8 6 3 26 14 NNE 1019,1 20 0,0
03.04.2020 21:00:00 12,2 0,3 10,9 11,7 11,8 16 8 33 18 N 1017,8 20 0,0
03.04.2020 20:00:00 13,6 -0,5 12,6 11,7 11,8 22 12 37 20 N 1016,9 20 0,0
03.04.2020 19:00:00 15,6 -0,6 18,1 11,6 11,8 19 10 35 19 N 1016,0 20 0,0
03.04.2020 18:00:00 16,8 -1,4 20,7 11,6 11,8 18 10 34 19 N 1015,3 20 0,0
03.04.2020 17:00:00 17,2 -0,5 21,4 11,6 11,8 19 10 40 21 NNE 1015,0 20 0,0
03.04.2020 16:00:00 16,7 -1,0 21,4 11,6 11,8 21 11 40 22 NNE 1015,3 20 0,0
03.04.2020 15:00:00 16,4 0,5 21,2 11,7 11,8 22 12 40 22 NE 1015,4 20 0,0
03.04.2020 14:00:00 15,5 -0,3 20,3 11,7 11,8 22 12 41 22 NNE 1015,8 20 0,0
03.04.2020 13:00:00 14,6 -0,7 18,9 11,7 11,8 24 13 41 22 NE 1016,1 20 0,0
03.04.2020 12:00:00 13,7 -1,5 17,2 11,7 11,8 22 12 37 20 NE 1016,3 20 0,0
03.04.2020 11:00:00 12,1 -1,5 15,2 11,7 11,8 22 12 40 22 NNE 1016,7 20 0,0
03.04.2020 10:00:00 10,6 -1,2 12,4 11,8 11,8 17 9 28 15 N 1016,6 20 0,0
03.04.2020 09:00:00 8,7 -1,4 6,8 11,8 11,8 12 6 21 12 N 1016,8 20 0,0
03.04.2020 08:00:00 6,1 -1,8 3,7 11,7 11,8 13 7 19 10 NNE 1017,0 20 0,0
03.04.2020 07:00:00 5,9 -2,2 1,1 11,8 11,8 11 6 20 11 N 1016,5 20 0,0
03.04.2020 06:00:00 5,9 -2,5 2,7 11,7 11,8 6 3 21 12 N 1016,2 20 0,0
03.04.2020 05:00:00 6,6 -2,6 3,9 11,7 11,8 10 6 27 14 N 1016,0 20 0,0
03.04.2020 04:00:00 8,1 -1,7 5,0 11,7 11,9 17 9 27 15 N 1015,6 20 0,0
03.04.2020 03:00:00 7,6 -1,1 5,0 11,6 11,8 10 5 16 9 N 1015,7 20 0,0
03.04.2020 02:00:00 8,0 0,0 5,2 11,6 11,8 7 4 24 13 N 1015,6 20 0,0
03.04.2020 01:00:00 8,7 1,8 4,4 11,6 11,8 11 6 16 9 N 1015,2 20 0,0
03.04.2020 00:00:00 8,0 3,6 4,4 11,5 11,8 6 3 8 5 N 1015,2 20 0,0
02.04.2020 23:00:00 9,4 4,0 7,4 11,4 11,8 4 2 8 4 E 1014,6 20 0,0
02.04.2020 22:00:00 10,2 3,7 8,6 11,4 11,8 7 4 12 7 SW 1014,2 20 0,0
02.04.2020 21:00:00 12,4 3,9 11,8 11,4 11,8 9 5 15 8 S 1013,3 20 0,0
02.04.2020 20:00:00 13,7 4,3 13,1 11,4 11,8 8 4 16 8 SW 1012,5 20 0,0
02.04.2020 19:00:00 15,4 4,1 15,3 11,3 11,8 8 4 16 8 S 1012,1 20 0,0
02.04.2020 18:00:00 15,7 3,8 16,3 11,3 11,8 6 3 22 12 SW 1012,0 20 0,0
02.04.2020 17:00:00 16,1 3,8 21,3 11,3 11,8 5 3 18 10 SE 1012,2 20 0,0
02.04.2020 16:00:00 16,1 4,2 22,1 11,3 11,8 9 5 23 12 SSW 1012,8 20 0,0
02.04.2020 15:00:00 15,1 3,2 21,3 11,3 11,8 5 3 21 11 S 1013,6 20 0,0
02.04.2020 14:00:00 14,4 4,1 17,0 11,4 11,8 9 5 19 11 SSW 1014,2 20 0,0
02.04.2020 13:00:00 13,0 4,2 17,9 11,4 11,8 6 3 22 12 SSW 1014,9 20 0,0
02.04.2020 12:00:00 11,7 3,2 17,7 11,4 11,8 11 6 21 11 S 1015,6 20 0,0
02.04.2020 11:00:00 9,9 3,6 15,6 11,5 11,8 5 3 11 6 S 1016,0 20 0,0
02.04.2020 10:00:00 8,3 4,1 10,4 11,5 11,8 0 0 6 4 N 1016,2 20 0,0
02.04.2020 09:00:00 5,1 3,8 1,6 11,5 11,8 0 0 4 2 N 1016,7 20 0,0
02.04.2020 08:00:00 1,3 1,2 -1,8 11,5 11,8 3 2 6 3 NNE 1017,1 17 0,0
02.04.2020 07:00:00 0,9 0,5 -1,5 11,6 11,9 5 3 7 4 NE 1016,9 17 0,0
02.04.2020 06:00:00 1,3 0,6 -1,5 11,5 11,8 4 2 6 3 NNE 1016,9 19 0,0
02.04.2020 05:00:00 1,6 0,9 -0,9 11,5 11,8 4 2 7 4 NE 1017,2 18 0,0
02.04.2020 04:00:00 2,4 1,5 0,1 11,5 11,8 4 2 9 5 NNE 1017,5 20 0,0
02.04.2020 03:00:00 3,4 2,5 0,5 11,5 11,8 6 4 10 5 N 1017,7 20 0,0
02.04.2020 02:00:00 3,4 1,4 0,5 11,5 11,8 4 2 6 4 NNE 1018,1 20 0,0
02.04.2020 01:00:00 4,6 2,8 1,4 11,5 11,8 4 2 7 4 NNE 1018,0 20 0,0
02.04.2020 00:00:00 4,9 2,6 1,2 11,4 11,8 2 1 9 5 ESE 1018,3 20 0,0
01.04.2020 23:00:00 6,7 3,1 4,9 11,4 11,8 7 4 16 9 SW 1018,0 20 0,0
01.04.2020 22:00:00 7,9 3,4 6,8 11,4 11,8 11 6 19 11 SSW 1017,7 20 0,0
01.04.2020 21:00:00 9,1 3,3 8,0 11,3 11,8 13 7 23 12 SSW 1017,2 20 0,0
01.04.2020 20:00:00 10,7 2,5 10,0 11,3 11,8 14 8 29 15 S 1016,5 20 0,0
01.04.2020 19:00:00 12,8 2,9 15,2 11,3 11,8 17 9 29 16 S 1016,2 20 0,0
01.04.2020 18:00:00 13,4 2,6 17,3 11,3 11,8 18 10 31 17 S 1016,1 20 0,0
01.04.2020 17:00:00 14,0 2,5 19,0 11,3 11,8 16 9 27 14 SSW 1016,5 20 0,0
01.04.2020 16:00:00 13,8 2,1 18,3 11,3 11,8 14 8 34 18 SW 1017,3 20 0,0
01.04.2020 15:00:00 12,3 1,9 14,4 11,3 11,8 19 10 32 18 SW 1018,4 20 0,0
01.04.2020 14:00:00 10,8 3,6 14,0 11,3 11,8 16 9 26 14 WSW 1019,4 20 0,0
01.04.2020 13:00:00 10,0 2,3 12,1 11,3 11,8 14 8 23 12 SSW 1020,4 20 0,0
01.04.2020 12:00:00 9,1 1,7 10,4 11,4 11,8 10 5 14 8 SW 1021,0 20 0,0
01.04.2020 11:00:00 8,3 1,0 9,0 11,4 11,8 4 2 7 4 SSW 1021,3 20 0,0
01.04.2020 10:00:00 7,1 0,7 7,3 11,4 11,8 0 0 3 2 N 1021,4 20 0,0
01.04.2020 09:00:00 6,1 0,0 5,6 11,4 11,8 2 1 8 4 ENE 1021,3 20 0,0
01.04.2020 08:00:00 5,1 -0,5 4,5 11,4 11,8 4 2 7 4 N 1021,1 20 0,0
01.04.2020 07:00:00 4,6 -0,6 4,1 11,4 11,8 5 3 8 4 NE 1021,1 20 0,0
01.04.2020 06:00:00 4,1 -0,1 2,4 11,4 11,8 2 1 9 5 NE 1021,1 20 0,0
01.04.2020 05:00:00 3,0 -0,8 0,1 11,4 11,8 7 4 11 6 NNE 1021,3 20 0,0
01.04.2020 04:00:00 2,8 -0,5 -0,6 11,4 11,8 5 3 10 5 NNE 1021,3 20 0,0
01.04.2020 03:00:00 4,3 0,1 -0,3 11,4 11,8 4 2 8 4 NNW 1021,1 20 0,0
01.04.2020 02:00:00 5,0 0,6 1,4 11,3 11,8 5 3 13 7 WNW 1020,8 20 0,0
01.04.2020 01:00:00 6,0 0,1 2,6 11,3 11,8 8 4 18 10 N 1020,5 20 0,0
01.04.2020 00:00:00 6,8 0,0 4,9 11,3 11,8 13 7 19 10 NNE 1020,1 20 0,0
31.03.2020 23:00:00 7,3 -0,2 5,3 11,2 11,8 10 5 33 18 N 1020,3 20 0,0
31.03.2020 22:00:00 9,2 -0,7 8,2 11,2 11,8 19 11 31 17 N 1019,8 20 0,0
31.03.2020 21:00:00 9,9 -0,6 7,7 11,2 11,8 17 9 27 15 NNE 1019,2 20 0,0
31.03.2020 20:00:00 10,9 0,0 10,0 11,1 11,8 10 5 22 12 NE 1018,5 20 0,0
31.03.2020 19:00:00 12,4 0,8 12,4 11,1 11,8 16 9 29 16 NE 1018,1 20 0,0
31.03.2020 18:00:00 14,0 1,3 15,9 11,1 11,8 14 8 25 13 NE 1017,5 20 0,0
31.03.2020 17:00:00 14,6 2,1 16,7 11,1 11,8 14 8 30 16 ENE 1017,6 20 0,0
31.03.2020 16:00:00 14,5 2,1 19,9 11,1 11,8 14 8 27 14 ENE 1017,9 20 0,0
31.03.2020 15:00:00 14,0 2,2 19,1 11,1 11,8 11 6 26 14 NE 1018,3 20 0,0
31.03.2020 14:00:00 13,0 1,6 18,7 11,2 11,8 13 7 29 15 ENE 1018,7 20 0,0
31.03.2020 13:00:00 12,5 1,8 16,9 11,2 11,8 15 8 34 19 NNE 1018,9 20 0,0
31.03.2020 12:00:00 11,2 0,9 14,8 11,3 11,8 22 12 37 20 N 1019,5 20 0,0
31.03.2020 11:00:00 9,9 0,5 11,7 11,4 11,9 22 12 39 21 NNE 1019,8 20 0,0
31.03.2020 10:00:00 8,3 -0,2 9,9 11,3 11,8 24 13 39 21 NNE 1019,5 20 0,0
31.03.2020 09:00:00 6,8 -0,7 5,2 11,4 11,8 16 9 27 15 N 1019,2 20 0,0
31.03.2020 08:00:00 4,7 -0,9 2,4 11,4 11,8 14 7 27 15 NNE 1018,8 20 0,0
31.03.2020 07:00:00 3,9 -1,3 2,5 11,4 11,8 9 5 33 18 NNE 1018,5 20 0,0
31.03.2020 06:00:00 5,0 -1,3 4,3 11,5 11,8 16 9 32 18 NNE 1018,0 20 0,0
31.03.2020 05:00:00 5,0 -1,0 3,5 11,5 11,8 18 10 28 15 N 1018,1 20 0,0
31.03.2020 04:00:00 4,6 -1,0 3,4 11,5 11,8 17 9 30 16 N 1018,3 20 0,0
31.03.2020 03:00:00 4,2 -0,8 2,9 11,5 11,8 10 5 20 11 NNE 1018,6 20 0,0
31.03.2020 02:00:00 4,8 -0,4 3,0 11,5 11,8 11 6 20 11 NNE 1018,5 20 0,0
31.03.2020 01:00:00 4,5 -0,1 3,3 11,5 11,8 11 6 25 13 N 1018,9 20 0,0
31.03.2020 00:00:00 5,6 -0,1 4,6 11,5 11,8 16 8 38 20 N 1018,8 20 0,0
30.03.2020 23:00:00 6,4 0,1 5,3 11,5 11,8 23 12 45 24 N 1018,4 20 0,0
30.03.2020 22:00:00 6,4 0,1 5,5 11,5 11,8 23 12 41 22 N 1018,4 20 0,0
30.03.2020 21:00:00 7,0 0,2 6,2 11,5 11,8 28 15 46 25 N 1017,9 20 0,0
30.03.2020 20:00:00 7,1 0,3 6,8 11,5 11,8 24 13 52 28 N 1017,4 20 0,0
30.03.2020 19:00:00 8,4 0,6 9,1 11,5 11,8 30 16 49 27 N 1017,0 20 0,0
30.03.2020 18:00:00 9,4 0,8 11,4 11,5 11,8 32 17 52 28 N 1016,3 20 0,0
30.03.2020 17:00:00 9,6 1,0 10,9 11,5 11,7 28 15 46 25 N 1016,5 20 0,0
30.03.2020 16:00:00 10,5 1,3 12,7 11,6 11,8 28 15 46 25 NNE 1016,3 20 0,0
30.03.2020 15:00:00 10,6 1,1 13,1 11,6 11,8 26 14 46 25 NNE 1016,7 20 0,0
30.03.2020 14:00:00 10,8 1,1 14,4 11,6 11,8 27 14 53 29 N 1016,8 20 0,0
30.03.2020 13:00:00 10,0 1,9 10,5 11,7 11,8 33 18 50 27 N 1016,9 20 0,0
30.03.2020 12:00:00 8,5 0,7 10,1 11,7 11,7 27 14 48 26 NNE 1017,3 20 0,0
30.03.2020 11:00:00 7,9 0,4 9,6 11,7 11,7 23 12 41 22 NNE 1017,3 20 0,0
30.03.2020 10:00:00 7,6 -0,1 7,1 11,8 11,8 25 13 41 22 N 1017,2 20 0,0
30.03.2020 09:00:00 5,9 -0,6 5,1 11,8 11,8 17 9 34 18 NNE 1017,4 20 0,0
30.03.2020 08:00:00 5,0 -1,0 3,6 11,8 11,7 18 10 34 19 NNE 1017,2 20 0,0
30.03.2020 07:00:00 4,4 -1,0 3,4 11,9 11,8 15 8 37 20 N 1016,8 20 0,0
30.03.2020 06:00:00 4,3 -0,9 3,4 11,9 11,8 14 7 31 17 N 1016,9 20 0,0
30.03.2020 05:00:00 4,3 -0,5 3,2 11,9 11,7 16 9 29 16 N 1017,2 20 0,0
30.03.2020 04:00:00 4,3 -0,5 3,5 11,9 11,7 14 8 25 14 N 1017,4 20 0,0
30.03.2020 03:00:00 5,0 -0,8 4,3 12,0 11,8 16 9 29 15 NNE 1017,6 20 0,0
30.03.2020 02:00:00 5,5 -1,0 4,9 11,9 11,7 17 9 27 15 N 1018,3 20 0,0
30.03.2020 01:00:00 5,7 -1,2 5,2 11,9 11,8 16 9 31 17 N 1018,5 20 0,0
30.03.2020 00:00:00 5,7 -1,5 5,2 11,9 11,7 16 9 35 19 N 1018,8 20 0,0

tt = Température de l'air
td = dewpoint
tt 5cm = Température de l'air 5cm
tt -20cm = Température de l'air -20cm
tt -100cm = Température de l'air -100cm
ff = Vitesse du vent
fx = gusts
dd = Direction du vent
ppp = reduced air pressure
vv = visibility
rr = Quantités de précipitations

stations d'obs. à proximité